sat.trackr.live / text

‹ back to catalog

STARLINK-34736

NORAD 64846 · 2025-152E

PAYLOAD ACTIVE UNKNOWN

§ Identity

Operator
Country
US
Launch date
2025-07-19
Launch site
AFWTR
Launch vehicle
Mass (kg)
RCS (m²)

Purposes: comms

External: N2YO · Heavens-Above · Gunter

§ Orbital elements

Epoch: 2026-05-25T03:32:14.571168Z

Period
95.64 min
Inclination
97.4486°
Eccentricity
0.0001909
Mean motion
15.05660119 rev/d
Perigee alt
548.2 km
Apogee alt
550.8 km
Semi-major
6,927.6 km
B*
3.8260e-4
RAAN
0.5068°
Arg perigee
87.4264°
Mean anomaly
272.7182°
Rev number
4,692

§ Raw data

STARLINK-347361 64846U 25152E   26145.14739087  .00005468  00000+0  38260-3 0  99942 64846  97.4486   0.5068 0001909  87.4264 272.7182 15.05660119 46921

JSON: /api/v1/satellites/64846 · /tle

For live sub-satellite position, see the globe view (requires WebGL).

§ Visibility from observer

Set your observer location to see the next 7 days of passes ≥ 10°. The values pass through the URL so the page stays shareable.

No JS? Fill the form by hand. The geolocation button needs JavaScript.